KA9UAJ Weather Reports


time (UTC)temp
C
wind
direction
speed
KPH
gust
KPH
rain 1hr
cm
rain 24hr
cm
rain mn
cm
humidity
%
barometer
mb
20260906113023 19 46 0.0 0.0 0.00 0.00 0.00 87 1018.7
20260906111525 20 46 0.0 0.0 0.00 0.00 0.00 86 1018.6
20260906110007 20 46 0.0 1.6 0.00 0.00 0.00 87 1018.5
20260906104505 20 46 0.0 1.6 0.00 0.00 0.00 86 1018.3
20260906103013 20 46 0.0 0.0 0.00 0.00 0.00 86 1017.7
20260906101504 20 46 0.0 3.2 0.00 0.00 0.00 86 1017.8
20260906100012 21 33 0.0 4.8 0.00 0.00 0.00 87 1017.8
20260906094504 21 18 0.0 1.6 0.00 0.00 0.00 87 1017.7
20260906093017 21 18 0.0 3.2 0.00 0.00 0.00 87 1017.7
20260906091520 21 18 0.0 0.0 0.00 0.00 0.00 87 1017.7
20260906090008 21 18 0.0 0.0 0.00 0.00 0.00 87 1017.6
20260906084506 21 18 0.0 0.0 0.00 0.00 0.00 87 1017.7
20260906083006 21 18 0.0 0.0 0.00 0.00 0.00 87 1017.5
20260906081505 21 18 0.0 0.0 0.00 0.00 0.00 87 1017.5
20260906080004 21 18 0.0 0.0 0.00 0.00 0.00 87 1017.4
20260906074520 21 18 0.0 0.0 0.00 0.00 0.00 87 1017.4
20260906073017 21 18 0.0 0.0 0.00 0.00 0.00 87 1017.5
20260906071512 21 18 0.0 0.0 0.00 0.00 0.00 87 1017.6
20260906070018 21 18 0.0 0.0 0.00 0.00 0.00 87 1017.7
20260906064504 21 18 0.0 0.0 0.00 0.00 0.00 87 1017.7
20260906063006 21 18 0.0 0.0 0.00 0.00 0.00 87 1017.7
20260906061509 21 18 0.0 0.0 0.00 0.00 0.00 87 1017.7
20260906060004 21 18 0.0 0.0 0.00 0.00 0.00 87 1017.8
20260906054547 21 18 0.0 0.0 0.00 0.00 0.00 87 1017.9
20260906053019 21 18 0.0 3.2 0.00 0.00 0.00 87 1017.7
20260906051519 21 14 0.0 3.2 0.00 0.00 0.00 87 1017.5
20260906050024 21 18 0.0 3.2 0.00 0.00 0.00 87 1017.4
20260906044509 21 32 1.6 8.0 0.00 0.00 0.00 87 1017.2
20260906043007 21 33 0.0 11.3 0.00 0.00 0.00 86 1017.0
20260906041506 21 339 0.0 9.7 0.00 0.00 0.00 86 1016.8
20260906040040 21 14 4.8 12.9 0.00 0.00 0.00 86 1016.7
20260906034526 21 21 4.8 9.7 0.00 0.03 0.00 86 1016.6
20260906033024 21 2 0.0 11.3 0.00 0.05 0.00 86 1016.6
20260906031552 21 37 3.2 9.7 0.00 0.05 0.00 85 1016.6
20260906030015 21 28 3.2 12.9 0.00 0.05 0.00 85 1016.7
20260906024534 22 354 4.8 16.1 0.00 0.05 0.00 85 1016.5
20260906023010 22 344 3.2 17.7 0.00 0.05 0.00 84 1016.7
20260906021532 22 1 4.8 12.9 0.00 0.05 0.00 84 1016.7
20260906020005 22 352 3.2 12.9 0.00 0.05 0.00 84 1017.0
20260906014512 22 45 3.2 16.1 0.00 0.05 0.00 84 1016.9
20260906013004 22 28 4.8 11.3 0.00 0.05 0.00 84 1016.9
20260906011503 22 4 3.2 11.3 0.00 0.05 0.00 84 1016.8
20260906010039 22 22 6.4 14.5 0.00 0.05 0.00 84 1016.5
20260906004520 22 36 3.2 16.1 0.00 0.05 0.00 84 1016.2
20260906003011 22 312 4.8 20.9 0.00 0.05 0.00 83 1016.2
20260906001510 22 14 8.0 24.1 0.00 0.05 0.00 83 1016.3
20260906000012 22 41 1.6 16.1 0.00 0.05 0.00 83 1016.4
20260905234506 22 332 6.4 16.1 0.00 0.05 0.00 83 1016.4
20260905233000 22 18 4.8 22.5 0.00 0.05 0.00 82 1016.3
20260905231503 22 48 3.2 17.7 0.00 0.05 0.00 81 1016.3
20260905230031 22 74 3.2 19.3 0.00 0.05 0.00 81 1016.0
20260905224519 23 58 6.4 17.7 0.00 0.05 0.00 80 1016.2
20260905223016 23 66 1.6 12.9 0.00 0.05 0.00 79 1016.1
20260905221510 24 77 0.0 14.5 0.00 0.05 0.00 79 1016.0
20260905220007 25 36 1.6 16.1 0.00 0.05 0.00 78 1016.0
20260905214506 25 353 4.8 16.1 0.00 0.05 0.00 77 1015.7
20260905213004 25 25 4.8 12.9 0.00 0.05 0.00 76 1015.3
20260905211552 26 48 4.8 19.3 0.00 0.05 0.00 75 1015.4
20260905210024 26 360 6.4 19.3 0.00 0.05 0.00 73 1015.4
20260905204516 26 324 3.2 14.5 0.00 0.05 0.00 74 1015.6
20260905203015 26 23 6.4 19.3 0.00 0.05 0.00 74 1015.4
20260905201510 26 39 6.4 14.5 0.00 0.05 0.00 75 1015.4
20260905200009 26 299 0.0 12.9 0.00 0.05 0.00 74 1015.6
20260905194508 26 358 4.8 12.9 0.00 0.05 0.00 74 1015.8
20260905193029 26 41 6.4 17.7 0.00 0.05 0.00 73 1015.8
20260905191528 26 29 3.2 14.5 0.00 0.05 0.00 74 1015.8
20260905190027 26 45 1.6 16.1 0.00 0.05 0.00 74 1015.7
20260905184523 26 338 1.6 20.9 0.00 0.05 0.00 75 1016.0
20260905183029 26 8 6.4 20.9 0.00 0.05 0.00 75 1015.8
20260905181516 26 63 8.0 14.5 0.00 0.05 0.00 75 1016.1
20260905180010 25 10 3.2 16.1 0.00 0.05 0.00 77 1016.0
20260905174505 25 357 3.2 12.9 0.00 0.05 0.00 78 1015.8
20260905173051 25 18 6.4 12.9 0.00 0.05 0.00 78 1015.8
20260905171531 25 16 4.8 16.1 0.00 0.05 0.00 77 1015.8
20260905170024 25 47 3.2 16.1 0.00 0.05 0.00 78 1015.9
20260905164526 25 341 4.8 16.1 0.00 0.05 0.00 78 1015.9
20260905163022 25 281 4.8 14.5 0.00 0.05 0.00 78 1015.9
20260905161518 25 301 3.2 14.5 0.00 0.05 0.00 79 1016.1
20260905160015 25 18 1.6 14.5 0.00 0.05 0.00 79 1015.8
20260905154535 25 335 3.2 12.9 0.00 0.05 0.00 81 1015.8
20260905153007 25 16 1.6 9.7 0.00 0.05 0.00 83 1015.5
20260905151506 24 9 1.6 12.9 0.00 0.05 0.00 86 1015.6
20260905150007 23 7 0.0 14.5 0.00 0.05 0.00 87 1015.5
20260905144505 23 18 4.8 12.9 0.00 0.05 0.00 89 1015.3
20260905143004 23 54 3.2 11.3 0.00 0.05 0.00 90 1015.2
20260905141515 23 7 3.2 12.9 0.00 0.05 0.00 90 1015.0
20260905140003 23 357 6.4 14.5 0.00 0.05 0.00 91 1014.9
20260905134514 23 44 4.8 11.3 0.00 0.05 0.00 91 1015.0
20260905133012 23 284 1.6 11.3 0.00 0.05 0.00 91 1015.2
20260905131514 22 341 3.2 11.3 0.00 0.05 0.00 91 1014.7
20260905130009 22 71 3.2 8.0 0.00 0.05 0.00 91 1014.6
20260905124510 22 47 0.0 8.0 0.00 0.05 0.00 91 1014.4
20260905123006 22 43 0.0 6.4 0.00 0.05 0.00 91 1014.0
20260905121503 22 16 1.6 6.4 0.00 0.05 0.00 91 1013.8
20260905120026 22 10 1.6 8.0 0.00 0.05 0.00 91 1013.8
20260905114524 22 51 0.0 6.4 0.00 0.05 0.00 90 1013.5